Location: Eschertshofen
(49.3064°N, 11.5756°E)
Time: 03:21:42
(UTC+00:00)

Cosmos 1844 - Pass Details

Date: 18 September 2020
Orbit: 824 x 866 km, 70.9° (Epoch: 18 October)

Event Time Altitude Azimuth Distance (km) Brightness Sun altitude
Rises 19:27:03 0° 195° (SSW) 3,413 6.7 -20.7°
Reaches altitude 10° 19:29:32 10° 192° (SSW) 2,475 5.9 -21.1°
Maximum altitude 19:35:07 61° 113° (ESE) 956 3.6 -21.8°
Drops below altitude 10° 19:40:41 10° 34° (NE) 2,463 6.1 -22.6°
Sets 19:43:08 0° 31° (NNE) 3,396 6.9 -23.0°
